Fremont, MI

12:09 AM EST on November 20, 2019 (GMT -0500)
Fremont

Weather History for KFFX - September, 2019

Change the Weather History Date:

Monday, September 23, 2019

  Actual Average (WUND) Record (WUND)
Temperature  
Mean Temperature 62 °F -  
Max Temperature 69 °F - - (-1)
Min Temperature 54 °F - - (-1)
Degree Days  
Heating Degree Days 4    
Growing Degree Days 12 (Base 50)    
Moisture  
Dew Point 54 °F    
Average Humidity 75    
Maximum Humidity 97    
Minimum Humidity 42    
Precipitation  
Precipitation 0.00 in - - ()
Sea Level Pressure  
Sea Level Pressure 29.91 in    
Wind  
Wind Speed 7 mph ()    
Max Wind Speed 18 mph    
Max Gust Speed 23 mph    
Visibility 9.7 miles    
Events Rain    
Averages and records for this station are not official NWS values.
T = Trace of Precipitation, MM = Missing Value Source: Averaged Metar Reports

Daily Weather History Graph

Daily Weather History Graph

Search for Another Location

Airport or City:

Astronomy

Sep. 23, 2019 Rise Set
Actual Time 7:32 AM EDT 7:39 PM EDT
Civil Twilight 7:03 AM EDT 8:08 PM EDT
Nautical Twilight 6:30 AM EDT 8:41 PM EDT
Astronomical Twilight 5:55 AM EDT 9:15 PM EDT
Moon 1:03 AM EDT (9/23) 4:43 PM EDT (9/23)
Length of Visible Light 13h 04m
Length of Day
12h 07m
Waning Crescent, 33% of the Moon is Illuminated
Sep 23
Waning Crescent
Sep 28
New
Oct 5
First Quarter
Oct 13
Full
Oct 21
Last Quarter

Hourly Weather History & Observations

Time (EDT) Temp. Dew Point Humidity Pressure Visibility Wind Dir Wind Speed Gust Speed Precip Events Conditions
12:15 AM 66.6 °F 65.5 °F 96% 29.79 in 10.0 mi WNW 5.8 mph - N/A   Overcast
12:35 AM 66.4 °F 65.3 °F 96% 29.79 in 5.0 mi West 5.8 mph - N/A Rain Light Rain
12:59 AM 66.2 °F 64.6 °F 94% 29.79 in 10.0 mi NW 4.6 mph - N/A   Overcast
1:17 AM 66.2 °F 64.6 °F 94% 29.80 in 10.0 mi West 6.9 mph - N/A   Overcast
1:35 AM 65.7 °F 64.6 °F 96% 29.79 in 10.0 mi WNW 3.5 mph - N/A   Overcast
1:36 AM 65.7 °F 64.4 °F 96% 29.79 in 10.0 mi WNW 4.6 mph - N/A   Overcast
1:55 AM 64.9 °F 63.9 °F 96% 29.80 in 10.0 mi West 5.8 mph - N/A   Overcast
1:56 AM 64.9 °F 63.9 °F 96% 29.80 in 10.0 mi West 5.8 mph - N/A   Overcast
2:15 AM 64.9 °F 64.0 °F 97% 29.81 in 10.0 mi West 4.6 mph - N/A   Overcast
2:38 AM 64.8 °F 63.7 °F 96% 29.82 in 10.0 mi West 5.8 mph - N/A   Overcast
2:56 AM 64.6 °F 63.5 °F 96% 29.81 in 10.0 mi WNW 4.6 mph - N/A   Mostly Cloudy
3:15 AM 64.4 °F 63.1 °F 96% 29.81 in 10.0 mi WNW 4.6 mph - N/A   Mostly Cloudy
3:16 AM 64.4 °F 63.1 °F 96% 29.81 in 10.0 mi WNW 4.6 mph - N/A   Mostly Cloudy
3:35 AM 63.9 °F 63.0 °F 97% 29.81 in 10.0 mi West 3.5 mph - N/A   Mostly Cloudy
3:59 AM 63.9 °F 63.0 °F 97% 29.80 in 10.0 mi Calm Calm - N/A   Mostly Cloudy
4:17 AM 63.9 °F 63.0 °F 97% 29.81 in 10.0 mi West 4.6 mph - N/A   Overcast
4:35 AM 64.0 °F 63.1 °F 97% 29.80 in 10.0 mi West 3.5 mph - N/A   Overcast
4:55 AM 63.7 °F 62.6 °F 96% 29.81 in 10.0 mi West 4.6 mph - N/A   Scattered Clouds
5:15 AM 63.7 °F 62.6 °F 96% 29.82 in 10.0 mi West 5.8 mph - N/A   Mostly Cloudy
5:38 AM 63.5 °F 61.9 °F 94% 29.83 in 10.0 mi West 10.4 mph 16.1 mph N/A   Overcast
5:56 AM 62.6 °F 61.2 °F 95% 29.83 in 10.0 mi West 6.9 mph - N/A   Mostly Cloudy
6:15 AM 61.9 °F 60.6 °F 96% 29.84 in 10.0 mi West 6.9 mph - N/A   Scattered Clouds
6:16 AM 61.7 °F 60.6 °F 96% 29.84 in 10.0 mi West 6.9 mph - N/A   Scattered Clouds
7:17 AM 61.0 °F 59.9 °F 96% 29.86 in 10.0 mi West 5.8 mph - N/A   Mostly Cloudy
7:35 AM 60.8 °F 59.5 °F 96% 29.87 in 10.0 mi West 5.8 mph - N/A   Mostly Cloudy
7:55 AM 60.8 °F 59.5 °F 96% 29.87 in 10.0 mi WNW 5.8 mph - N/A   Mostly Cloudy
7:56 AM 60.8 °F 59.7 °F 96% 29.87 in 10.0 mi WNW 5.8 mph - N/A   Mostly Cloudy
8:15 AM 60.4 °F 59.2 °F 96% 29.88 in 10.0 mi WNW 8.1 mph - N/A   Mostly Cloudy
8:38 AM 61.2 °F 59.7 °F 95% 29.89 in 10.0 mi WNW 10.4 mph - N/A   Mostly Cloudy
8:56 AM 60.8 °F 58.6 °F 93% 29.90 in 10.0 mi WNW 8.1 mph 17.3 mph N/A   Overcast
9:15 AM 61.0 °F 57.6 °F 88% 29.91 in 10.0 mi WNW 9.2 mph - N/A   Overcast
9:35 AM 61.2 °F 57.4 °F 87% 29.92 in 10.0 mi NW 9.2 mph - N/A   Mostly Cloudy
9:59 AM 63.0 °F 55.4 °F 76% 29.92 in 10.0 mi WNW 12.7 mph - N/A   Scattered Clouds
10:17 AM 62.8 °F 53.1 °F 71% 29.92 in 10.0 mi WNW 16.1 mph 23.0 mph N/A   Mostly Cloudy
10:35 AM 63.3 °F 51.1 °F 64% 29.93 in 10.0 mi WNW 15.0 mph 20.7 mph N/A   Scattered Clouds
10:36 AM 63.5 °F 50.9 °F 63% 29.93 in 10.0 mi WNW 12.7 mph 18.4 mph N/A   Scattered Clouds
10:55 AM 64.6 °F 49.5 °F 58% 29.93 in 10.0 mi WNW 11.5 mph 17.3 mph N/A   Scattered Clouds
10:56 AM 64.8 °F 49.3 °F 57% 29.93 in 10.0 mi WNW 9.2 mph 17.3 mph N/A   Scattered Clouds
11:15 AM 64.8 °F 49.3 °F 57% 29.93 in 10.0 mi West 10.4 mph - N/A   Scattered Clouds
11:20 AM 64.8 °F 48.9 °F 56% 29.93 in 10.0 mi West 11.5 mph - N/A   Mostly Cloudy
11:38 AM 66.0 °F 49.1 °F 54% 29.93 in 10.0 mi West 11.5 mph 18.4 mph N/A   Mostly Cloudy
11:56 AM 64.9 °F 47.8 °F 54% 29.93 in 10.0 mi West 15.0 mph 21.9 mph N/A   Mostly Cloudy
12:15 PM 66.2 °F 48.2 °F 52% 29.94 in 10.0 mi WNW 12.7 mph 19.6 mph N/A   Mostly Cloudy
12:35 PM 66.0 °F 48.6 °F 53% 29.93 in 10.0 mi West 13.8 mph 19.6 mph N/A   Mostly Cloudy
12:59 PM 67.8 °F 48.2 °F 49% 29.93 in 10.0 mi West 15.0 mph 20.7 mph N/A   Overcast
1:17 PM 68.5 °F 47.5 °F 47% 29.94 in 10.0 mi WNW 13.8 mph 20.7 mph N/A   Overcast
1:35 PM 67.6 °F 47.3 °F 48% 29.94 in 10.0 mi West 12.7 mph 21.9 mph N/A   Overcast
1:55 PM 68.7 °F 48.4 °F 48% 29.94 in 10.0 mi West 15.0 mph 19.6 mph N/A   Mostly Cloudy
2:15 PM 68.9 °F 47.7 °F 47% 29.94 in 10.0 mi West 17.3 mph 23.0 mph N/A   Mostly Cloudy
2:20 PM 68.7 °F 47.7 °F 47% 29.94 in 10.0 mi West 15.0 mph 23.0 mph N/A   Overcast
2:38 PM 67.5 °F 47.3 °F 48% 29.94 in 10.0 mi WNW 15.0 mph 19.6 mph N/A   Mostly Cloudy
2:56 PM 69.4 °F 47.1 °F 45% 29.94 in 10.0 mi WNW 15.0 mph 20.7 mph N/A   Mostly Cloudy
3:15 PM 68.5 °F 45.9 °F 44% 29.94 in 10.0 mi WNW 18.4 mph 23.0 mph N/A   Mostly Cloudy
3:35 PM 68.4 °F 46.0 °F 45% 29.95 in 10.0 mi WNW 12.7 mph 20.7 mph N/A   Mostly Cloudy
3:59 PM 69.8 °F 45.5 °F 42% 29.94 in 10.0 mi WNW 16.1 mph 20.7 mph N/A   Mostly Cloudy
4:17 PM 68.9 °F 45.1 °F 42% 29.95 in 10.0 mi WNW 17.3 mph 21.9 mph N/A   Scattered Clouds
4:35 PM 68.9 °F 45.1 °F 42% 29.94 in 10.0 mi WNW 12.7 mph 19.6 mph N/A   Clear
4:55 PM 68.9 °F 44.8 °F 42% 29.94 in 10.0 mi WNW 10.4 mph - N/A   Scattered Clouds
4:56 PM 68.9 °F 45.3 °F 43% 29.94 in 10.0 mi WNW 11.5 mph - N/A   Scattered Clouds
5:15 PM 69.1 °F 45.9 °F 43% 29.95 in 10.0 mi WNW 10.4 mph 18.4 mph N/A   Mostly Cloudy
5:20 PM 68.9 °F 45.9 °F 44% 29.95 in 10.0 mi NW 13.8 mph 18.4 mph N/A   Mostly Cloudy
5:38 PM 67.1 °F 45.5 °F 46% 29.95 in 10.0 mi WNW 10.4 mph 16.1 mph N/A   Scattered Clouds
5:56 PM 66.4 °F 46.0 °F 48% 29.95 in 10.0 mi WNW 10.4 mph 16.1 mph N/A   Clear
6:15 PM 66.4 °F 47.1 °F 50% 29.95 in 10.0 mi WNW 8.1 mph - N/A   Scattered Clouds
6:16 PM 66.6 °F 46.9 °F 49% 29.95 in 10.0 mi WNW 6.9 mph - N/A   Scattered Clouds
6:35 PM 66.6 °F 47.1 °F 50% 29.96 in 10.0 mi WNW 8.1 mph - N/A   Scattered Clouds
6:36 PM 66.6 °F 47.1 °F 50% 29.96 in 10.0 mi WNW 6.9 mph - N/A   Scattered Clouds
6:59 PM 65.1 °F 49.1 °F 56% 29.96 in 10.0 mi WNW 4.6 mph - N/A   Scattered Clouds
7:17 PM 64.6 °F 49.5 °F 58% 29.96 in 10.0 mi WNW 3.5 mph - N/A   Scattered Clouds
7:35 PM 63.3 °F 49.3 °F 60% 29.96 in 10.0 mi West 3.5 mph - N/A   Clear
7:55 PM 61.7 °F 50.2 °F 66% 29.96 in 10.0 mi Calm Calm - N/A   Clear
7:56 PM 61.7 °F 50.4 °F 66% 29.96 in 10.0 mi Calm Calm - N/A   Clear
8:15 PM 59.7 °F 54.1 °F 82% 29.97 in 10.0 mi Calm Calm - N/A   Clear
8:20 PM 58.6 °F 55.2 °F 88% 29.97 in 10.0 mi Calm Calm - N/A   Clear
8:38 PM 58.5 °F 55.6 °F 90% 29.97 in 10.0 mi Calm Calm - N/A   Clear
8:56 PM 57.4 °F 55.4 °F 93% 29.98 in 10.0 mi Calm Calm - N/A   Clear
9:15 PM 56.3 °F 54.9 °F 95% 29.98 in 10.0 mi Calm Calm - N/A   Clear
9:35 PM 56.3 °F 55.0 °F 96% 29.98 in 10.0 mi Calm Calm - N/A   Clear
9:36 PM 56.3 °F 55.0 °F 96% 29.98 in 10.0 mi Calm Calm - N/A   Clear
9:59 PM 55.8 °F 54.7 °F 96% 29.98 in 10.0 mi Calm Calm - N/A   Clear
10:17 PM 55.6 °F 54.7 °F 97% 29.98 in 10.0 mi Calm Calm - N/A   Clear
10:35 PM 55.0 °F 54.0 °F 96% 29.98 in 10.0 mi Calm Calm - N/A   Clear
10:55 PM 54.3 °F 53.2 °F 96% 29.98 in 10.0 mi Calm Calm - N/A   Clear
10:56 PM 54.1 °F 53.1 °F 96% 29.98 in 10.0 mi Calm Calm - N/A   Clear
11:15 PM 54.3 °F 53.2 °F 96% 29.99 in 1.8 mi Calm Calm - N/A   Mist
11:20 PM 54.5 °F 53.2 °F 96% 29.99 in 2.0 mi Calm Calm - N/A   Clear
11:38 PM 54.5 °F 53.2 °F 96% 29.98 in 10.0 mi Calm Calm - N/A   Mostly Cloudy
11:56 PM 54.0 °F 52.9 °F 96% 29.98 in 7.0 mi Calm Calm - N/A   Overcast